Time,TemperatureF,DewpointF,PressureIn,WindDirection,WindDirectionDegrees,WindSpeedMPH,WindSpeedGustMPH,Humidity,HourlyPrecipIn,Conditions,Clouds,dailyrainin,SolarRadiationWatts/m^2,SoftwareType,DateUTC
2013-05-18 00:11:00,56.0,18.0,30.00,NNW,348,8.0,11.0,22,-99.99,,,-99.99,0.000000,,2013-05-18 07:11:00,
2013-05-18 01:20:00,50.0,18.0,30.01,SE,137,3.0,7.0,28,-99.99,,,-99.99,0.000000,,2013-05-18 08:20:00,
2013-05-18 02:11:00,50.0,18.0,30.01,SE,137,3.0,7.0,28,-99.99,,,-99.99,0.000000,,2013-05-18 09:11:00,
2013-05-18 02:20:00,51.0,20.0,30.01,NNW,342,4.0,8.0,29,-99.99,,,-99.99,0.000000,,2013-05-18 09:20:00,
2013-05-18 03:12:00,51.0,20.0,30.01,NNW,342,4.0,8.0,29,-99.99,,,-99.99,0.000000,,2013-05-18 10:12:00,
2013-05-18 03:20:00,46.0,19.0,30.02,ESE,116,0.0,3.0,33,-99.99,,,-99.99,0.000000,,2013-05-18 10:20:00,
2013-05-18 04:12:00,46.0,19.0,30.02,ESE,116,0.0,3.0,33,-99.99,,,-99.99,0.000000,,2013-05-18 11:12:00,
2013-05-18 04:20:00,41.0,18.0,30.03,South,181,2.0,3.0,38,-99.99,,,-99.99,0.000000,,2013-05-18 11:20:00,
2013-05-18 05:20:00,40.0,18.0,30.04,SSE,152,3.0,4.0,41,-99.99,,,-99.99,0.000000,,2013-05-18 12:20:00,
2013-05-18 06:20:00,40.0,19.0,30.06,SSE,166,4.0,6.0,43,-99.99,,,-99.99,53.000000,,2013-05-18 13:20:00,
2013-05-18 07:20:00,52.0,22.0,30.08,SE,134,3.0,4.0,31,-99.99,,,-99.99,238.000000,,2013-05-18 14:20:00,
2013-05-18 08:13:00,52.0,22.0,30.08,SE,134,3.0,4.0,31,-99.99,,,-99.99,238.000000,,2013-05-18 15:13:00,
2013-05-18 08:20:00,58.0,25.0,30.08,NW,322,2.0,5.0,28,-99.99,,,-99.99,440.000000,,2013-05-18 15:20:00,
2013-05-18 09:20:00,59.0,26.0,30.08,West,278,3.0,7.0,28,-99.99,,,-99.99,633.000000,,2013-05-18 16:20:00,
2013-05-18 10:12:00,59.0,26.0,30.08,West,278,3.0,7.0,28,-99.99,,,-99.99,633.000000,,2013-05-18 17:12:00,
2013-05-18 10:20:00,62.0,26.0,30.07,NW,317,6.0,12.0,25,-99.99,,,-99.99,799.000000,,2013-05-18 17:20:00,
2013-05-18 11:12:00,62.0,26.0,30.07,NW,317,6.0,12.0,25,-99.99,,,-99.99,799.000000,,2013-05-18 18:12:00,
2013-05-18 11:20:00,65.0,23.0,30.06,NNW,347,6.0,17.0,20,-99.99,,,-99.99,920.000000,,2013-05-18 18:20:00,
2013-05-18 12:11:00,65.0,23.0,30.06,NNW,347,6.0,17.0,20,-99.99,,,-99.99,920.000000,,2013-05-18 19:11:00,
2013-05-18 12:20:00,67.0,22.0,30.05,WNW,302,5.0,12.0,18,-99.99,,,-99.99,985.000000,,2013-05-18 19:20:00,
2013-05-18 13:20:00,69.0,21.0,30.03,NW,324,6.0,19.0,16,-99.99,,,-99.99,993.000000,,2013-05-18 20:20:00,
2013-05-18 14:12:00,69.0,21.0,30.03,NW,324,6.0,19.0,16,-99.99,,,-99.99,993.000000,,2013-05-18 21:12:00,
2013-05-18 15:20:00,74.0,16.0,29.99,NNW,346,13.0,22.0,11,-99.99,,,-99.99,855.000000,,2013-05-18 22:20:00,
2013-05-18 16:11:00,74.0,16.0,29.99,NNW,346,13.0,22.0,11,-99.99,,,-99.99,855.000000,,2013-05-18 23:11:00,
2013-05-18 16:20:00,75.0,17.0,29.97,NNW,339,14.0,20.0,11,-99.99,,,-99.99,808.000000,,2013-05-18 23:20:00,
2013-05-18 18:20:00,73.0,19.0,29.96,North,351,13.0,21.0,13,-99.99,,,-99.99,338.000000,,2013-05-19 01:20:00,
2013-05-18 19:20:00,72.0,20.0,29.96,WNW,300,16.0,22.0,14,-99.99,,,-99.99,145.000000,,2013-05-19 02:20:00,
2013-05-18 20:11:00,72.0,20.0,29.96,WNW,300,16.0,22.0,14,-99.99,,,-99.99,145.000000,,2013-05-19 03:11:00,
2013-05-18 20:20:00,67.0,23.0,29.99,NNW,342,14.0,21.0,19,-99.99,,,-99.99,2.000000,,2013-05-19 03:20:00,
2013-05-18 21:20:00,62.0,30.0,30.04,NNW,335,13.0,21.0,29,-99.99,,,-99.99,0.000000,,2013-05-19 04:20:00,
2013-05-18 22:20:00,60.0,31.0,30.06,NW,320,9.0,13.0,33,-99.99,,,-99.99,0.000000,,2013-05-19 05:20:00,
2013-05-18 23:20:00,59.0,30.0,30.07,North,354,12.0,16.0,34,-99.99,,,-99.99,0.000000,,2013-05-19 06:20:00,